Weather Roundup
Issued by NWS Corpus Christi, TX

Home | Current Version | Previous Version | Text Only | Print | Product List | Glossary On
Versions: 1 2 3 4 5 6 7 8 9 10 11 12 13 14 15 16 17 18 19 20 21 22 23 24 25 26 27 28 29 30 31 32 33 34 35 36 37 38 39 40 41 42 43 44 45 46 47 48 49 50
000
ASUS44 KCRP 221010
HRRCRP

SOUTH TEXAS REGIONAL WEATHER ROUNDUP
NATIONAL WEATHER SERVICE CORPUS CHRISTI TX
500 AM CDT SUN OCT 22 2017


TXZ229>244-221100-
...CORPUS CHRISTI AREA OBSERVATIONS...

CITY           SKY/WX    TMP DP  RH WIND       PRES   REMARKS
CORPUS CHRISTI PTCLDY    75  75 100 S3        29.93S
NAS CORPUS CHR NOT AVBL
ROCKPORT       CLEAR     76  75  97 CALM      29.94R
KINGSVILLE ARP CLOUDY    76  76 100 CALM      29.94F FOG
ALICE          CLOUDY    76  75  97 S3        29.93F
$$

...VICTORIA AREA OBSERVATIONS...

CITY           SKY/WX    TMP DP  RH WIND       PRES   REMARKS
PORT LAVACA    RAIN      76  74  93 CALM      29.94F
VICTORIA       FOG       73  71  93 CALM      29.95R VSB 3/4
BEEVILLE       MOCLDY   N/A N/A N/A SE3       29.94S FOG
PLEASANTON     PTCLDY    72  72 100 CALM      29.98R FOG
SAN ANTONIO    MOCLDY    76  71  85 S7        29.99S
$$

...LAREDO AREA OBSERVATIONS...

CITY           SKY/WX    TMP DP  RH WIND       PRES   REMARKS
LAREDO         CLEAR     74  71  91 SE6       29.94R
COTULLA        CLEAR     74  71  91 E3        29.96R
DEL RIO        CLEAR     66  66 100 NW5       29.99R
MCALLEN        MOCLDY    77  74  90 CALM      29.92R
HEBBRONVILLE   PTCLDY    73  71  95 CALM      29.95S FOG
$$

...OTHER TEXAS OBSERVATIONS...

CITY           SKY/WX    TMP DP  RH WIND       PRES   REMARKS
BROWNSVILLE    MOCLDY    75  75 100 CALM      29.92R FOG
HOUSTON        PTCLDY    72  72 100 CALM      29.97R FOG
COL. STATION   CLOUDY    76  75  97 S10       29.95S
AUSTIN         PTCLDY    73  73 100 S5        29.96S
WACO           TSTM      61  59  93 NE10      30.01R FOG
FORT WORTH     LGT RAIN  64  61  90 SW20      30.01R
WICHITA FALLS  CLOUDY    56  52  86 N13       30.10R
LUBBOCK        CLEAR     41  36  82 NW9       30.20R
EL PASO        CLEAR     63  20  19 N18       30.21R
$$

...MARINE OBSERVATIONS...

STATION/POSITION TIME  SKY/WX   TEMP    WIND        PRES    VSBY  WAVE   SWELL
                                AIR SEA DIR/SP/G                  HT/PER HT/PER
                 (UTC)          (F)     (DEG/KT/KT) (MB)    (MI)  (FT/S) (FT/S)
PORT ARANSAS     NOT AVBL
BUOY 90 E PORT A 0850            82 82  150/ 14/ 16 1013.7          4/ 8   2/ 8
BUOY 200 E PT IS 0850            83 83  130/ 12/ 14 1013.5          5/ 8   3/ 8
BUOY 15 E GALVES 0950            80 80  190/ 10/ 12 1014.2S         3/ 8   2/ 8
$$



USA.gov is the U.S. government's official web portal to all federal, state and local government web resources and services.